FW2068 Weather Reports


Display with metric or nautical units.
time (UTC)temp
F
wind
direction
speed
MPH
gust
MPH
rain 1hr
in
rain 24hr
in
rain mn
in
humidity
%
barometer
mb
20260503191210 80 165 9.0 11.0 0.00 0.00 0.00 38 1019.1
20260503190707 80 193 7.0 11.0 0.00 0.00 0.00 37 1018.9
20260503190204 81 182 7.0 12.0 0.00 0.00 0.00 37 1019.0
20260503185701 79 135 3.0 14.0 0.00 0.00 0.00 40 1019.1
20260503185156 80 241 7.0 12.0 0.00 0.00 0.00 39 1019.1
20260503184651 80 236 6.0 13.0 0.00 0.00 0.00 37 1019.4
20260503184148 80 165 9.0 10.0 0.00 0.00 0.00 39 1019.3
20260503183644 79 159 9.0 11.0 0.00 0.00 0.00 40 1019.4
20260503183142 79 248 4.0 13.0 0.00 0.00 0.00 41 1019.6
20260503182640 80 267 8.0 11.0 0.00 0.00 0.00 39 1019.8
20260503182139 79 217 7.0 13.0 0.00 0.00 0.00 42 1019.8
20260503181635 79 127 8.0 10.0 0.00 0.00 0.00 42 1019.7
20260503181131 79 241 10.0 14.0 0.00 0.00 0.00 41 1020.1
20260503180628 79 242 8.0 11.0 0.00 0.00 0.00 41 1019.8
20260503180126 79 247 6.0 11.0 0.00 0.00 0.00 46 1020.1
20260503175623 78 210 11.0 13.0 0.00 0.00 0.00 42 1020.4
20260503175120 78 235 8.0 12.0 0.00 0.00 0.00 43 1020.3
20260503174616 78 181 9.0 10.0 0.00 0.00 0.00 43 1020.5
20260503174114 78 196 5.0 13.0 0.00 0.00 0.00 43 1020.5
20260503173608 78 158 6.0 13.0 0.00 0.00 0.00 46 1020.5
20260503173105 78 164 7.0 10.0 0.00 0.00 0.00 47 1020.9
20260503172602 78 187 5.0 13.0 0.00 0.00 0.00 44 1020.7
20260503172100 78 250 5.0 11.0 0.00 0.00 0.00 46 1020.8
20260503171556 77 146 7.0 11.0 0.00 0.00 0.00 44 1020.9
20260503171054 78 147 8.0 10.0 0.00 0.00 0.00 43 1020.9
20260503170549 78 168 6.0 10.0 0.00 0.00 0.00 43 1021.0
20260503150942 71 177 2.0 10.0 0.00 0.00 0.00 54 1021.5
20260503150439 71 185 7.0 9.0 0.00 0.00 0.00 54 1021.6
20260503131332 62 197 3.0 8.0 0.00 0.00 0.00 68 1021.2
20260503130829 61 152 6.0 8.0 0.00 0.00 0.00 69 1021.0
20260503130327 61 162 4.0 6.0 0.00 0.00 0.00 69 1021.1
20260503110720 57 155 3.0 4.0 0.00 0.00 0.00 74 1020.0
20260503110217 57 147 3.0 5.0 0.00 0.00 0.00 74 1020.1
20260503100138 57 137 2.0 4.0 0.00 0.00 0.00 73 1020.0
20260503081532 59 152 2.0 4.0 0.00 0.00 0.00 68 1019.6
20260503081030 59 136 2.0 3.0 0.00 0.00 0.00 68 1019.6
20260503080526 59 172 1.0 2.0 0.00 0.00 0.00 67 1019.8
20260503072459 59 159 2.0 3.0 0.00 0.00 0.00 66 1019.6
20260503071956 59 209 2.0 2.0 0.00 0.00 0.00 66 1019.9
20260503071453 59 196 2.0 2.0 0.00 0.00 0.00 66 1019.9
20260503070949 60 118 1.0 4.0 0.00 0.00 0.00 65 1020.0
20260503070446 60 180 2.0 3.0 0.00 0.00 0.00 64 1019.9
20260503054900 62 164 4.0 5.0 0.00 0.00 0.00 58 1019.8
20260503054356 62 136 3.0 6.0 0.00 0.00 0.00 58 1019.7
20260503053854 62 142 4.0 5.0 0.00 0.00 0.00 58 1019.8
20260503053352 62 132 3.0 6.0 0.00 0.00 0.00 59 1019.7
20260503052848 62 136 4.0 5.0 0.00 0.00 0.00 59 1019.8
20260503052345 62 147 4.0 6.0 0.00 0.00 0.00 59 1020.0
20260503051842 62 136 3.0 4.0 0.00 0.00 0.00 60 1019.9
20260503051338 62 132 3.0 5.0 0.00 0.00 0.00 61 1019.8
20260503050835 61 135 4.0 4.0 0.00 0.00 0.00 61 1019.7
20260503050331 62 131 3.0 5.0 0.00 0.00 0.00 60 1019.7
20260503045829 63 119 4.0 5.0 0.00 0.00 0.00 58 1019.7
20260503045327 63 131 4.0 5.0 0.00 0.00 0.00 58 1019.9
20260503044823 63 149 3.0 4.0 0.00 0.00 0.00 56 1019.8
20260503044320 64 145 3.0 5.0 0.00 0.00 0.00 55 1019.8
20260503043817 64 140 4.0 4.0 0.00 0.00 0.00 56 1019.9
20260503043314 64 154 5.0 5.0 0.00 0.00 0.00 55 1019.7
20260503042810 64 151 4.0 5.0 0.00 0.00 0.00 55 1019.7
20260503042307 64 150 3.0 5.0 0.00 0.00 0.00 55 1019.7
20260503041803 64 144 4.0 4.0 0.00 0.00 0.00 56 1019.7
20260503041300 64 137 4.0 5.0 0.00 0.00 0.00 54 1019.9
20260503040758 65 143 3.0 6.0 0.00 0.00 0.00 54 1019.8
20260503040255 65 147 4.0 5.0 0.00 0.00 0.00 52 1019.8
20260503035752 65 162 4.0 5.0 0.00 0.00 0.00 54 1019.8
20260503035249 65 147 4.0 6.0 0.00 0.00 0.00 52 1019.8
20260503034746 65 142 5.0 6.0 0.00 0.00 0.00 52 1019.7
20260503034243 65 152 4.0 6.0 0.00 0.00 0.00 53 1019.7
20260503033741 65 143 4.0 5.0 0.00 0.00 0.00 53 1019.7
20260503033238 65 157 4.0 4.0 0.00 0.00 0.00 52 1019.7
20260503032736 65 145 5.0 5.0 0.00 0.00 0.00 52 1019.6
20260503032235 65 142 4.0 5.0 0.00 0.00 0.00 53 1019.7
20260503031732 65 133 4.0 5.0 0.00 0.00 0.00 52 1019.6
20260503031230 65 142 3.0 4.0 0.00 0.00 0.00 55 1019.6
20260503030725 66 126 2.0 3.0 0.00 0.00 0.00 52 1019.5
20260503030222 66 126 1.0 3.0 0.00 0.00 0.00 51 1019.4
20260503025719 66 120 1.0 2.0 0.00 0.00 0.00 52 1019.5
20260503025217 66 119 2.0 2.0 0.00 0.00 0.00 51 1019.4
20260503024713 66 112 1.0 2.0 0.00 0.00 0.00 53 1019.5
20260503024211 66 124 2.0 2.0 0.00 0.00 0.00 53 1019.3
20260503023707 67 127 2.0 2.0 0.00 0.00 0.00 51 1019.4
20260503023203 67 104 3.0 3.0 0.00 0.00 0.00 51 1019.3
20260503022659 67 68 1.0 3.0 0.00 0.00 0.00 52 1019.2
20260503022159 67 113 2.0 2.0 0.00 0.00 0.00 52 1019.1
20260503021656 68 115 2.0 2.0 0.00 0.00 0.00 51 1019.2
20260503021153 68 106 2.0 2.0 0.00 0.00 0.00 50 1018.9
20260503020650 68 117 2.0 2.0 0.00 0.00 0.00 51 1018.9
20260503020147 68 128 1.0 2.0 0.00 0.00 0.00 49 1019.1
20260503015644 69 122 2.0 3.0 0.00 0.00 0.00 48 1019.1
20260503015141 69 118 2.0 3.0 0.00 0.00 0.00 49 1019.0
20260503014637 69 131 3.0 3.0 0.00 0.00 0.00 49 1019.0
20260503014135 69 116 2.0 3.0 0.00 0.00 0.00 49 1018.8
20260503013632 69 135 2.0 3.0 0.00 0.00 0.00 50 1019.0
20260503013130 69 126 3.0 3.0 0.00 0.00 0.00 47 1018.8
20260503012627 70 139 2.0 4.0 0.00 0.00 0.00 47 1018.9
20260503012123 70 142 2.0 3.0 0.00 0.00 0.00 46 1018.7
20260503011620 70 143 2.0 2.0 0.00 0.00 0.00 46 1018.8
20260503011117 71 134 3.0 3.0 0.00 0.00 0.00 45 1018.8
20260503010613 71 131 2.0 3.0 0.00 0.00 0.00 43 1018.6
20260503010111 71 161 3.0 4.0 0.00 0.00 0.00 42 1018.8
20260503005608 73 148 2.0 3.0 0.00 0.00 0.00 40 1018.5
20260503005105 74 130 1.0 2.0 0.00 0.00 0.00 36 1018.5
20260503004601 75 186 0.0 1.0 0.00 0.00 0.00 33 1018.5
20260503004100 75 243 2.0 3.0 0.00 0.00 0.00 34 1018.3
20260503003555 77 257 1.0 2.0 0.00 0.00 0.00 35 1018.4
20260503003053 76 327 0.0 2.0 0.00 0.00 0.00 32 1018.5
20260503002550 77 302 2.0 3.0 0.00 0.00 0.00 33 1018.4
20260503002047 77 297 1.0 3.0 0.00 0.00 0.00 34 1018.3
20260503001543 77 311 2.0 4.0 0.00 0.00 0.00 34 1018.4
20260503001040 78 308 1.0 2.0 0.00 0.00 0.00 33 1018.3
20260503000538 77 242 0.0 3.0 0.00 0.00 0.00 33 1018.4
20260503000035 77 295 2.0 4.0 0.00 0.00 0.00 35 1018.4
20260502235531 77 300 2.0 3.0 0.00 0.00 0.00 34 1018.3
20260502235029 77 305 4.0 5.0 0.00 0.00 0.00 33 1018.4
20260502234525 77 280 4.0 6.0 0.00 0.00 0.00 33 1018.3
20260502234024 77 303 5.0 8.0 0.00 0.00 0.00 33 1018.5
20260502233523 79 304 2.0 4.0 0.00 0.00 0.00 32 1018.7
20260502233021 79 317 2.0 4.0 0.00 0.00 0.00 33 1018.5
20260502232517 79 4 3.0 4.0 0.00 0.00 0.00 31 1018.4
20260502232014 79 334 2.0 4.0 0.00 0.00 0.00 32 1018.5
20260502231511 78 263 0.0 4.0 0.00 0.00 0.00 33 1018.7
20260502231009 80 294 3.0 3.0 0.00 0.00 0.00 31 1018.7
20260502230507 79 1 2.0 3.0 0.00 0.00 0.00 33 1018.7
20260502230005 79 298 6.0 7.0 0.00 0.00 0.00 33 1018.6
20260502225500 78 352 2.0 5.0 0.00 0.00 0.00 33 1018.5
20260502224958 77 287 7.0 8.0 0.00 0.00 0.00 33 1018.7
20260502224454 78 296 6.0 8.0 0.00 0.00 0.00 35 1018.7
20260502223951 79 268 2.0 4.0 0.00 0.00 0.00 33 1018.7
20260502223449 79 338 2.0 4.0 0.00 0.00 0.00 34 1018.6
20260502222947 79 322 2.0 5.0 0.00 0.00 0.00 32 1018.7
20260502222444 78 281 0.0 2.0 0.00 0.00 0.00 35 1018.7
20260502221944 76 225 6.0 6.0 0.00 0.00 0.00 35 1018.8
20260502221441 76 290 5.0 7.0 0.00 0.00 0.00 35 1018.8
20260502220938 77 329 4.0 6.0 0.00 0.00 0.00 35 1018.8
20260502220434 78 283 3.0 7.0 0.00 0.00 0.00 34 1018.7
20260502215931 77 341 3.0 9.0 0.00 0.00 0.00 34 1018.7
20260502215428 78 314 2.0 4.0 0.00 0.00 0.00 37 1018.9
20260502214925 78 269 1.0 2.0 0.00 0.00 0.00 38 1018.9
20260502214422 75 259 4.0 9.0 0.00 0.00 0.00 34 1019.0
20260502213919 76 298 6.0 12.0 0.00 0.00 0.00 35 1019.2
20260502213416 77 292 6.0 7.0 0.00 0.00 0.00 34 1019.2
20260502212915 78 323 5.0 5.0 0.00 0.00 0.00 34 1019.2
20260502212413 78 294 3.0 7.0 0.00 0.00 0.00 36 1019.2
20260502211910 78 12 4.0 9.0 0.00 0.00 0.00 35 1019.2
20260502211410 78 312 3.0 6.0 0.00 0.00 0.00 36 1019.4
20260502210908 78 336 2.0 3.0 0.00 0.00 0.00 36 1019.4
20260502210405 78 293 4.0 6.0 0.00 0.00 0.00 38 1019.4
20260502205902 77 296 3.0 4.0 0.00 0.00 0.00 35 1019.4
20260502205358 77 302 4.0 6.0 0.00 0.00 0.00 36 1019.4
20260502204856 75 299 6.0 10.0 0.00 0.00 0.00 37 1019.6
20260502204353 77 313 4.0 9.0 0.00 0.00 0.00 37 1019.5
20260502203850 77 287 1.0 4.0 0.00 0.00 0.00 35 1019.6
20260502203348 78 259 0.0 5.0 0.00 0.00 0.00 36 1019.6
20260502202843 77 292 4.0 6.0 0.00 0.00 0.00 35 1019.6
20260502202341 76 226 3.0 8.0 0.00 0.00 0.00 38 1019.8
20260502201838 76 305 7.0 11.0 0.00 0.00 0.00 36 1020.1
20260502201334 76 329 4.0 7.0 0.00 0.00 0.00 38 1019.9
20260502200831 76 343 3.0 7.0 0.00 0.00 0.00 35 1020.1
20260502200326 75 352 3.0 13.0 0.00 0.00 0.00 37 1019.9
20260502195825 75 303 7.0 10.0 0.00 0.00 0.00 35 1020.1
20260502195321 74 266 5.0 8.0 0.00 0.00 0.00 35 1020.1
20260502194818 74 279 7.0 10.0 0.00 0.00 0.00 34 1020.4
20260502194315 76 249 2.0 4.0 0.00 0.00 0.00 32 1020.4
20260502193810 75 338 2.0 5.0 0.00 0.00 0.00 36 1020.4
20260502193308 75 260 1.0 5.0 0.00 0.00 0.00 37 1020.4
20260502192803 74 282 5.0 7.0 0.00 0.00 0.00 38 1020.4
20260502192301 74 284 7.0 10.0 0.00 0.00 0.00 36 1020.7
20260502191758 74 292 8.0 15.0 0.00 0.00 0.00 36 1020.5
20260502191255 73 273 6.0 11.0 0.00 0.00 0.00 34 1020.7